Location: Hamburg
(53.5554°N, 9.9941°E)
Time: 07:00:31
(UTC+01:00)

ISS - Pass Details

Date: 13 January 2018
Orbit: 402 x 407 km, 51.6° (Epoch: 18 January)

Event Time Altitude Azimuth Distance (km) Brightness Sun altitude
Exits shadow 05:33:54 17° 148° (SSE) 1,123 -1.2 -25.2°
Drops below altitude 10° 05:34:52 10° 139° (SE) 1,464 -0.5 -25.0°
Sets 05:37:03 0° 129° (SE) 2,323 0.8 -24.7°
